Location: LDNL
(36.4545°S, 141.6685°E)
Time: 21:45:56
(UTC+11:00)

ISS - Pass Details

Date: 12 December 2021
Orbit: 413 x 422 km, 51.6° (Epoch: 22 January)

Event Time Altitude Azimuth Distance (km) Brightness Sun altitude
Exits shadow 00:46:53 - 244° (WSW) 1,813 -0.1 -29.8°
Reaches altitude 10° 00:48:16 10° 226° (SW) 1,510 -0.3 -29.8°
Maximum altitude 00:49:41 12° 202° (SSW) 1,391 -0.3 -29.9°
Drops below altitude 10° 00:51:06 10° 177° (S) 1,514 -0.1 -29.9°
Sets 00:54:19 0° 144° (SE) 2,383 0.7 -30.0°
